This is the latest recevied weather packets stored in our database for station/object VE1UHF-4. If no packets are shown the sender has not sent any weather packets the latest 1 day(s).
| Time | Temp. | Humidity | Pressure | Rain* | Wind** | Luminosity | Snow |
|---|---|---|---|---|---|---|---|
| 1836274450 | 15.56° C | 63% | 1009.6 hPa | 0 mm | 0 m/s | - | - |
| 1836274300 | 15.56° C | 64% | 1009.5 hPa | 0 mm | 0 m/s | - | - |
| 1778045660 | 16.11° C | 75% | 1004.7 hPa | 0 mm | 0 m/s | - | - |
| 1778044760 | 16.11° C | 74% | 1005 hPa | 0 mm | 0 m/s | - | - |
| 1778043859 | 16.67° C | 74% | 1004.9 hPa | 0 mm | 0 m/s | - | - |
| 1778042959 | 16.67° C | 73% | 1005 hPa | 0 mm | 0 m/s | - | - |
| 1778042058 | 16.67° C | 73% | 1004.7 hPa | 0 mm | 0 m/s | - | - |
| 1778041158 | 17.22° C | 73% | 1004.6 hPa | 0 mm | 0 m/s | - | - |
| 1778040257 | 17.22° C | 73% | 1004.6 hPa | 0 mm | 0 m/s | - | - |
| 1778037553 | 18.33° C | 72% | 1004.6 hPa | 0 mm | 0 m/s | - | - |
| 1778036652 | 18.33° C | 72% | 1004.7 hPa | 0 mm | 0 m/s | - | - |
| 1778035751 | 18.33° C | 71% | 1005 hPa | 0 mm | 0 m/s | - | - |
| 1778034852 | 18.89° C | 71% | 1004.9 hPa | 0 mm | 0 m/s | - | - |
| 1778033950 | 18.89° C | 71% | 1004.7 hPa | 0 mm | 0 m/s | - | - |
| 1778033050 | 19.44° C | 71% | 1004.1 hPa | 0 mm | 0 m/s | - | - |
| 1778032149 | 19.44° C | 70% | 1004 hPa | 0 mm | 0 m/s | - | - |
| 1778030348 | 20.56° C | 70% | 1004.1 hPa | 0 mm | 0 m/s | - | - |
| 1778029448 | 20.56° C | 70% | 1004.1 hPa | 0 mm | 0 m/s | - | - |
| 1778028547 | 20.56° C | 70% | 1003.8 hPa | 0 mm | 0 m/s | - | - |
| 1778027647 | 21.11° C | 70% | 1003.6 hPa | 0 mm | 0 m/s | - | - |
| 1778025845 | 21.67° C | 69% | 1002.9 hPa | 0 mm | 0 m/s | - | - |
| 1778024946 | 21.67° C | 69% | 1002.6 hPa | 0 mm | 0 m/s | - | - |
| 1778024044 | 22.22° C | 69% | 1002.3 hPa | 0 mm | 0 m/s | - | - |
| 1778023144 | 22.22° C | 68% | 1002.1 hPa | 0 mm | 0 m/s | - | - |
| 1778022243 | 22.78° C | 68% | 1001.8 hPa | 0 mm | 0 m/s | - | - |
* Rain since midnight (hover to see other rain measurements)
** Current wind speed in m/s (hover to see current wind gust speed)